Location: ??????
(42.0089°N, 44.3281°E)
Time: 00:10:44
(UTC+00:00)

Cosmos 2251 Rocket - Pass Details

Date: 02 June 2022
Orbit: 764 x 791 km, 74.0° (Epoch: 03 July)

Event Time Altitude Azimuth Distance (km) Brightness Sun altitude
Rises 21:28:18 0° 348° (NNW) 3,253 7.9 -25.4°
Reaches altitude 10° 21:30:57 10° 359° (N) 2,326 7.0 -25.3°
Maximum altitude 21:35:38 31° 62° (ENE) 1,327 5.0 -25.2°
Enters shadow 21:38:28 19° 110° (ESE) 1,763 5.2 -25.1°
